Regional Weather Roundup
Issued by NWS

Home | Current Version | Previous Version | Text Only | Print | Product List | Glossary Off
Versions: 1 2 3 4 5 6 7 8 9 10 11 12 13 14 15 16 17 18 19 20 21 22 23 24 25 26 27 28 29 30 31 32 33 34 35 36 37 38 39 40 41 42 43 44 45 46 47 48 49 50

000
ASUS43 KLOT 250006
RWRIL

ILLINOIS REGIONAL WEATHER ROUNDUP
NATIONAL WEATHER SERVICE CHICAGO/ROMEOVILLE IL
700 PM CDT THU APR 24 2014

NOTE: "FAIR" INDICATES FEW OR NO CLOUDS BELOW 12,000 FEET WITH NO
SIGNIFICANT WEATHER AND/OR OBSTRUCTIONS TO VISIBILITY.

* THESE STATIONS ARE NOT UNDER NWS QUALITY CONTROL. THEY ALSO MAY NOT
  REPORT WEATHER SUCH AS PRECIPITATION OR FOG.

ILZ001-002-007-009-015-016-024-250100-
NORTHWEST ILLINOIS

CITY           SKY/WX    TMP DP  RH WIND       PRES   REMARKS
MOLINE         RAIN      56  52  86 CALM      29.64S FOG
6HR MIN TEMP:  56; 6HR MAX TEMP:  60; 6HR PCP:  0.14;

STERLING*      CLOUDY    55  50  82 NE5       29.64F
SAVANNA*       LGT RAIN  55  49  80 SE6       29.66R
$$

ILZ003-004-008-010-011-017-018-250100-
NORTH CENTRAL ILLINOIS

CITY           SKY/WX    TMP DP  RH WIND       PRES   REMARKS
ROCKFORD       CLOUDY    61  39  44 SE10      29.69S
6HR MIN TEMP:  57; 6HR MAX TEMP:  63; 6HR PCP:  0.04;

FREEPORT*      DRIZZLE   51  49  93 CALM      29.67F
ROCHELLE*      RAIN      58  44  59 S10       29.69R
DE KALB*       LGT RAIN  59  38  46 SE13G21   29.69F
PERU*          RAIN      64  47  53 CALM      29.66S
$$

ILZ005-006-012>014-019>023-250100-
NORTHEAST ILLINOIS

CITY           SKY/WX    TMP DP  RH WIND       PRES   REMARKS
CHICAGO-OHARE  CLOUDY    61  28  28 SE17      29.71F
6HR MIN TEMP:  61; 6HR MAX TEMP:  64;

CHICAGO-MIDWAY CLOUDY    62  29  28 SE14      29.72F
6HR MIN TEMP:  60; 6HR MAX TEMP:  64;

AURORA         LGT RAIN  62  37  39 SE15G23   29.70F
6HR MIN TEMP:  60; 6HR MAX TEMP:  68; 6HR PCP: TRACE;

LANSING*       CLOUDY    60  27  28 SE18      29.71F
JOLIET*        CLOUDY    62  34  34 SE8       29.70F
WAUKEGAN       LGT RAIN  46  34  62 E8        29.73F
6HR MIN TEMP:  46; 6HR MAX TEMP:  55; 6HR PCP: TRACE;

DUPAGE AIRPORT LGT RAIN  61  34  36 SE15G24   29.70F
6HR MIN TEMP:  60; 6HR MAX TEMP:  68; 6HR PCP: TRACE;

KANKAKEE*      CLOUDY    63  38  40 SE12      29.70F
WHEELING       CLOUDY    62  28  27 SE12      29.73F
6HR MIN TEMP:  61; 6HR MAX TEMP:  64;

MORRIS*        CLOUDY    64  30  28 SE10      29.70R
NORTHERLY ISL    N/A     55  36  48 SE13        N/A
$$

LMZ740>746-250100-
SOUTHERN LAKE MICHIGAN

STATION/POSITION SKY/WX   TEMP    WIND        PRES    VSBY  WAVE
                          AIR SEA DIR/SP/G                  HT/PER
                          (F)     (DEG/KT/KT) (MB)    (MI)  (FT/S)
WAUKEGAN HARBOR            44     180/  4/  7 1009.1S
HARRISON CRIB              53     140/ 15/ 17   N/A
BURNHAM HARBOR             53     120/  6/ 13   N/A
CALUMET HARBOR             61     140/ 12/ 19 1007.4F
MICHIGAN CITY              59     110/ 19/ 26   N/A
$$

ILZ025>027-034>036-040-047-049-050-058-095>099-250100-
WEST-CENTRAL ILLINOIS

CITY           SKY/WX    TMP DP  RH WIND       PRES   REMARKS
QUINCY         LGT RAIN  57  56  96 E12       29.57F
GALESBURG*     LGT RAIN  54  54  97 NW6       29.64R
MACOMB*        RAIN      55  55 100 W8        29.67R
JACKSONVILLE*  LGT RAIN  59  56  89 W26G37    29.66R
PITTSFIELD*    LGT RAIN  59  55  86 NW6       29.63F
$$

ILZ028>032-037-038-041>044-048-051>054-059>061-250100-
CENTRAL ILLINOIS

CITY           SKY/WX    TMP DP  RH WIND       PRES   REMARKS
PONTIAC        CLOUDY    70  37  30 SE14      29.66R HAZE
BLOOMINGTON    LGT RAIN  64  44  48 SE13      29.65F
DECATUR        CLOUDY    71  42  35 SE16G23   29.64F
PEORIA         LGT RAIN  63  55  75 E7        29.61F
6HR MIN TEMP:  63; 6HR MAX TEMP:  73; 6HR PCP:  0.04;

LACON*         CLOUDY    60  54  80 NE5       29.64S
LINCOLN*       DRIZZLE   69  46  42 SE9       29.59F
SPRINGFIELD    CLOUDY    73  44  35 SE16      29.59F
6HR MIN TEMP:  73; 6HR MAX TEMP:  76; 6HR PCP: TRACE;

TAYLORVILLE    CLOUDY    70  45  40 SE14      29.60F
$$

ILZ033-039-045-046-055>057-062-063-250100-
EAST-CENTRAL ILLINOIS

CITY           SKY/WX    TMP DP  RH WIND       PRES   REMARKS
CHAMPAIGN      CLOUDY    67  43  41 SE15      29.67F
RANTOUL*       LGT RAIN  68  40  36 S18       29.69S
MATTOON        CLOUDY    69  40  34 SE14      29.67F
PARIS*         CLOUDY    68  40  36 SE13      29.71F
$$

ILZ079-100>102-250100-
SOUTHWEST ILLINOIS

CITY           SKY/WX    TMP DP  RH WIND       PRES   REMARKS
ALTON          HVY RAIN  68  55  64 W35G46    29.66R FOG
CAHOKIA*       RAIN      60  55  83 NW26G43   29.66R
SPARTA*        LGT RAIN  70  55  60 SW6       29.63F
$$

ILZ064>066-069>071-074>076-080>082-084>086-088>090-092>094-250100-
SOUTH-CENTRAL ILLINOIS

CITY           SKY/WX    TMP DP  RH WIND       PRES   REMARKS
CARBONDALE     CLOUDY    74  49  41 S15G29    29.65F
6HR MIN TEMP:  73; 6HR MAX TEMP:  77;

CAIRO*         CLOUDY    74  54  50 S12G17    29.66F
MARION         CLOUDY    75  50  41 S12       29.68F
MT. VERNON     CLOUDY    73  46  38 S8        29.67F
CENTRALIA*     CLOUDY    73  46  37 S12       29.64F
SALEM*         CLOUDY    75  46  36 SE9G17    29.65F
METROPOLIS*    CLOUDY    75  44  32 S6G16     29.69R
$$

ILZ067-068-072-073-078-083-087-091-250100-
SOUTHEAST ILLINOIS

CITY           SKY/WX    TMP DP  RH WIND       PRES   REMARKS
FLORA*         CLOUDY    72  42  34 S14       29.68S
FAIRFIELD*     MOCLDY    73  48  40 S7        29.68F
HARRISBURG*    CLOUDY    73  48  40 S12       29.70S
ROBINSON*      CLOUDY    72  42  34 SE10      29.72S
CARMI*         MOCLDY    75  47  37 SE14      29.69F
$$

ABBREVIATIONS USED IN REMARKS
   TC - TEMPERATURE IN CELSIUS
  WCI - WIND CHILL INDEX
   HX - HEAT INDEX
  VSB - VISIBILITY
$$




USA.gov is the U.S. government's official web portal to all federal, state and local government web resources and services.